This is the latest recevied weather packets stored in our database for station/object N3MFL. If no packets are shown the sender has not sent any weather packets the latest 10 day(s).
| Time | Temp. | Humidity | Pressure | Rain* | Wind** | Luminosity | Snow |
|---|---|---|---|---|---|---|---|
| 1777580055 | 11.67° C | 87% | 1006.3 hPa | 0 mm | - | 29 W/m² | - |
| 1777579751 | 11.67° C | 86% | 1006.5 hPa | 0 mm | - | 34 W/m² | - |
| 1777579449 | 11.67° C | 87% | 1006.4 hPa | 0 mm | - | 37 W/m² | - |
| 1777579145 | 11.67° C | 86% | 1006.4 hPa | 0 mm | - | 33 W/m² | - |
| 1777578845 | 12.22° C | 86% | 1006.4 hPa | 0 mm | - | 42 W/m² | - |
| 1777577931 | 12.22° C | 85% | 1006.4 hPa | 0 mm | - | 66 W/m² | - |
| 1777577626 | 12.22° C | 85% | 1006.6 hPa | 0 mm | - | 83 W/m² | - |
| 1777577324 | 12.22° C | 86% | 1006.6 hPa | 0 mm | - | 144 W/m² | - |
| 1777577020 | 11.67° C | 86% | 1006.6 hPa | 0 mm | - | 115 W/m² | - |
| 1777576416 | 12.22° C | 86% | 1006.7 hPa | 0 mm | - | 63 W/m² | - |
| 1777570344 | 11.67° C | 90% | 1007.4 hPa | 0 mm | - | 343 W/m² | - |
| 1777569431 | 10.56° C | 93% | 1007.8 hPa | 0 mm | - | 112 W/m² | - |
| 1777568825 | 10.56° C | 93% | 1008 hPa | 0 mm | - | 134 W/m² | - |
| 1777565789 | 10.56° C | 93% | 1008.1 hPa | 1.78 mm | - | 70 W/m² | - |
| 1777565182 | 10.56° C | 93% | 1008.4 hPa | 1.27 mm | - | 83 W/m² | - |
| 1777564270 | 10.56° C | 93% | 1008.2 hPa | 4.83 mm | - | 119 W/m² | - |
| 1777563663 | 10° C | 92% | 1008.3 hPa | 7.87 mm | - | 65 W/m² | - |
| 1777563361 | 10° C | 92% | 1008.2 hPa | 4.83 mm | - | 75 W/m² | - |
| 1777563058 | 10° C | 92% | 1008.1 hPa | 0 mm | - | 78 W/m² | - |
| 1777562754 | 10° C | 93% | 1008.1 hPa | 0 mm | - | 80 W/m² | - |
| 1777562149 | 10° C | 94% | 1008.1 hPa | 0 mm | - | 97 W/m² | - |
| 1777560938 | 10° C | 94% | 1007.9 hPa | 0 mm | - | 115 W/m² | - |
| 1777560333 | 10° C | 94% | 1008.1 hPa | 0 mm | - | 146 W/m² | - |
| 1777559726 | 10° C | 95% | 1008.1 hPa | 0 mm | - | 113 W/m² | - |
| 1777558815 | 9.44° C | 95% | 1008.4 hPa | 0 mm | - | 114 W/m² | - |
* Rain latest hour (hover to see other rain measurements)
** Current wind speed in m/s (hover to see current wind gust speed)